This demonstration page uses our WeatherBlox Daily Observations layout. Learn more.

Hourly Observations for March 1, 2020

Temp ( °F °C ) Dew Point ( °F °C ) Humidity (%) Winds ( mph kmh ) Pressure ( in mb ) Visibility ( mi km ) Precip ( " mm )
12:15 am 00:15 Clear 44 6.4 26 -3.2 51 51 W 5 7 29.72 1007 10 16.0934 0 0
12:35 am 00:35 Clear 47 8.1 26 -3.2 45 45 Calm 29.71 1006 10 16.0934 0 0
12:55 am 00:55 Clear 44 6.5 28 -2.4 53 53 S 5 7 29.72 1007 10 16.0934 0 0
1:15 am 01:15 Clear 41 4.9 27 -2.6 59 59 S 5 7 29.74 1007 10 16.0934 0 0
1:35 am 01:35 Clear 39 4 27 -2.6 62 62 SW 6 9 29.76 1008 10 16.0934 0 0
1:55 am 01:55 Clear 40 4.7 28 -2.1 62 62 NW 6 9 29.76 1008 10 16.0934 0 0
2:15 am 02:15 Clear 38 3.1 27 -2.6 67 67 WNW 5 7 29.77 1008 10 16.0934 0 0
2:35 am 02:35 Clear 38 3.3 28 -2.4 67 67 SW 3 6 29.76 1008 10 16.0934 0 0
2:55 am 02:55 Clear 36 2.4 28 -2.5 70 70 Calm 29.77 1008 10 16.0934 0 0
3:15 am 03:15 Clear 35 1.4 26 -3.2 72 72 Calm 29.77 1008 10 16.0934 0 0
3:35 am 03:35 Clear 33 0.7 26 -3.1 76 76 W 3 6 29.77 1008 10 16.0934 0 0
3:55 am 03:55 Clear 33 0.8 26 -3.4 74 74 W 7 11 29.77 1008 10 16.0934 0 0
4:15 am 04:15 Clear 32 0 26 -3.6 77 77 WNW 5 7 29.76 1008 10 16.0934 0 0
4:35 am 04:35 Clear 35 1.6 26 -3.2 71 71 WNW 6 9 29.76 1008 10 16.0934 0 0
4:55 am 04:55 Clear 39 4 25 -3.7 58 58 W 3 6 29.75 1007 10 16.0934 0 0
5:15 am 05:15 Clear 37 2.8 25 -4 61 61 W 5 7 29.76 1008 10 16.0934 0 0
5:35 am 05:35 Clear 37 2.5 25 -4 63 63 NNW 3 6 29.77 1008 10 16.0934 0 0
5:55 am 05:55 Clear 36 2.4 25 -4 63 63 NNW 7 11 29.78 1009 10 16.0934 0 0
6:15 am 06:15 Clear 39 4.1 26 -3.3 59 59 NW 10 17 29.78 1008 10 16.0934 0 0
6:35 am 06:35 Clear 42 5.5 28 -2.5 57 57 NW 10 17 29.76 1008 10 16.0934 0 0
6:55 am 06:55 Clear 44 6.4 28 -2 55 55 NW 14 22 29.76 1008 10 16.0934 0 0
7:15 am 07:15 Sunny 42 5.4 28 -2 59 59 NNW 10 17 29.79 1009 10 16.0934 0 0
7:35 am 07:35 Sunny 40 4.2 28 -2 64 64 NNW 10 17 29.81 1010 10 16.0934 0 0
7:55 am 07:55 Sunny 40 4.5 30 -1.3 66 66 N 15 24 29.81 1010 10 16.0934 0 0
8:15 am 08:15 Sunny 39 4 29 -1.6 67 67 N 13 20 29.84 1010 10 16.0934 0 0
8:35 am 08:35 Sunny 40 4.2 28 -2 64 64 N 18 30 29.83 1010 10 16.0934 0 0
8:55 am 08:55 Sunny 40 4.5 28 -2 63 63 N 16 26 29.84 1011 10 16.0934 0 0
9:15 am 09:15 Sunny 42 5.6 28 -2 58 58 N 17 28 29.84 1011 10 16.0934 0 0
9:35 am 09:35 Sunny 42 5.8 28 -2.1 57 57 N 21 33 29.85 1011 10 16.0934 0 0
9:55 am 09:55 Sunny 45 7 28 -2.1 53 53 N 24 39 29.84 1010 10 16.0934 0 0
10:15 am 10:15 Sunny 46 7.6 28 -2.1 51 51 N 22 35 29.84 1011 10 16.0934 0 0
10:35 am 10:35 Sunny 46 7.5 28 -2.5 49 49 N 18 30 29.85 1011 10 16.0934 0 0
10:55 am 10:55 Sunny 47 8.5 27 -2.6 46 46 N 21 33 29.84 1010 10 16.0934 0 0
11:15 am 11:15 Sunny 49 9.5 27 -2.8 42 42 NNE 25 41 29.83 1010 10 16.0934 0 0
11:35 am 11:35 Sunny 51 10.4 27 -2.6 40 40 NNE 24 39 29.82 1010 10 16.0934 0 0
11:55 am 11:55 Sunny 51 10.6 26 -3.4 38 38 N 26 43 29.81 1009 10 16.0934 0 0
12:15 pm 12:15 Sunny 52 11.3 26 -3.3 36 36 N 26 43 29.81 1010 10 16.0934 0 0
12:35 pm 12:35 Sunny 53 11.9 27 -2.9 36 36 N 21 33 29.81 1009 10 16.0934 0 0
12:55 pm 12:55 Sunny 54 12.1 27 -2.7 36 36 NNE 26 43 29.8 1009 10 16.0934 0 0
1:15 pm 13:15 Sunny 55 12.5 27 -2.8 35 35 N 26 43 29.79 1009 10 16.0934 0 0
1:35 pm 13:35 Sunny 55 12.6 27 -2.8 34 34 N 25 41 29.78 1008 10 16.0934 0 0
1:55 pm 13:55 Sunny 55 12.8 27 -2.8 34 34 NNE 23 37 29.78 1008 10 16.0934 0 0
2:15 pm 14:15 Sunny 56 13.2 26 -3.3 32 32 NNE 18 30 29.77 1008 10 16.0934 0 0
2:35 pm 14:35 Sunny 56 13.2 26 -3.4 32 32 N 21 33 29.77 1008 10 16.0934 0 0
2:55 pm 14:55 Sunny 56 13.5 26 -3.5 31 31 N 18 30 29.78 1009 10 16.0934 0 0
3:15 pm 15:15 Sunny 56 13.4 26 -3.5 31 31 NNE 18 30 29.78 1009 10 16.0934 0 0
3:35 pm 15:35 Sunny 56 13.5 26 -3.3 31 31 NNE 18 30 29.79 1009 10 16.0934 0 0
3:55 pm 15:55 Sunny 55 13 25 -3.7 31 31 NNE 20 31 29.8 1009 10 16.0934 0 0
4:15 pm 16:15 Sunny 55 12.8 25 -4.1 31 31 NNE 20 31 29.81 1009 10 16.0934 0 0
4:35 pm 16:35 Sunny 54 12.4 24 -4.6 30 30 NNE 18 30 29.81 1010 10 16.0934 0 0
4:55 pm 16:55 Sunny 54 12 23 -5.1 30 30 NNE 20 31 29.82 1010 10 16.0934 0 0
5:15 pm 17:15 Sunny 53 11.5 21 -5.9 29 29 NNE 18 30 29.83 1010 10 16.0934 0 0
5:35 pm 17:35 Sunny 52 11 21 -6.1 30 30 NNE 17 28 29.84 1011 10 16.0934 0 0
5:55 pm 17:55 Sunny 50 10 21 -6.1 32 32 NNE 13 20 29.86 1011 10 16.0934 0 0
6:15 pm 18:15 Sunny 48 8.7 21 -6.1 35 35 NNE 12 19 29.87 1012 10 16.0934 0 0
6:35 pm 18:35 Clear 46 7.6 21 -6.1 38 38 NNE 13 20 29.89 1012 10 16.0934 0 0
6:55 pm 18:55 Clear 44 6.8 22 -5.4 42 42 NNE 9 15 29.92 1013 10 16.0934 0 0
7:15 pm 19:15 Clear 43 6.2 22 -5.3 44 44 NNE 8 13 29.94 1014 10 16.0934 0 0
7:35 pm 19:35 Partly Cloudy 41 5.2 23 -5 48 48 NNE 7 11 29.97 1015 10 16.0934 0 0
7:55 pm 19:55 Clear 39 4.1 23 -5.2 51 51 N 7 11 29.99 1015 10 16.0934 0 0
8:15 pm 20:15 Clear 38 3.3 23 -5 55 55 N 9 15 29.99 1016 10 16.0934 0 0
8:35 pm 20:35 Clear 37 3 23 -4.9 57 57 NNE 8 13 30 1016 10 16.0934 0 0
8:55 pm 20:55 Clear 37 2.8 23 -5 57 57 N 8 13 30.01 1016 10 16.0934 0 0
9:15 pm 21:15 Clear 34 1.2 23 -5.1 63 63 N 9 15 30.03 1017 10 16.0934 0 0
9:35 pm 21:35 Clear 35 1.7 24 -4.5 64 64 N 9 15 30.05 1018 10 16.0934 0 0
9:55 pm 21:55 Clear 36 2 24 -4.5 62 62 N 10 17 30.05 1017 10 16.0934 0 0
10:15 pm 22:15 Clear 34 1 24 -4.2 69 69 N 8 13 30.06 1018 10 16.0934 0 0
10:35 pm 22:35 Clear 33 0.4 25 -4 73 73 N 7 11 30.06 1018 10 16.0934 0 0
10:55 pm 22:55 Clear 32 -0.2 25 -4.1 75 75 N 8 13 30.07 1018 10 16.0934 0 0
11:15 pm 23:15 Clear 33 0.6 25 -3.8 73 73 N 8 13 30.06 1018 10 16.0934 0 0
11:35 pm 23:35 Clear 33 0.5 25 -3.8 73 73 N 10 17 30.06 1018 10 16.0934 0 0
11:55 pm 23:55 Clear 33 0.7 26 -3.5 74 74 N 9 15 30.08 1019 10 16.0934 0 0

Powered by AerisWeather